Apalachicola Bay - St. George Island Weather Center

Moon Phase Calendar



Online Cameras

 


      

Current Conditions in Apalachicola
11/30/2022 2:08:27 AM

70°F
Feels Like 71
Clear
Humidity
88%
Pressure
30.03"
Wind
6.9 mph (SSE)
Dew Point
66°F
UV Index
0/10 (Low)
Visibility
6 mi

Hourly Forecast

Date & Time Wed, Nov 30
2:00 AM
Wed, Nov 30
3:00 AM
Wed, Nov 30
4:00 AM
Wed, Nov 30
5:00 AM
Wed, Nov 30
6:00 AM
Wed, Nov 30
7:00 AM
Wed, Nov 30
8:00 AM
Wed, Nov 30
9:00 AM
Wed, Nov 30
10:00 AM
Wed, Nov 30
11:00 AM
Wed, Nov 30
12:00 PM
Wed, Nov 30
1:00 PM
Wed, Nov 30
2:00 PM
Wed, Nov 30
3:00 PM
Wed, Nov 30
4:00 PM
Wed, Nov 30
5:00 PM
Wed, Nov 30
6:00 PM
Wed, Nov 30
7:00 PM
Wed, Nov 30
8:00 PM
Wed, Nov 30
9:00 PM
Wed, Nov 30
10:00 PM
Wed, Nov 30
11:00 PM
Thu, Dec 1
12:00 AM
Thu, Dec 1
1:00 AM
Thu, Dec 1
2:00 AM
Thu, Dec 1
3:00 AM
Thu, Dec 1
4:00 AM
Thu, Dec 1
5:00 AM
Thu, Dec 1
6:00 AM
Thu, Dec 1
7:00 AM
Thu, Dec 1
8:00 AM
Thu, Dec 1
9:00 AM
Thu, Dec 1
10:00 AM
Thu, Dec 1
11:00 AM
Thu, Dec 1
12:00 PM
Thu, Dec 1
1:00 PM
Thu, Dec 1
2:00 PM
Thu, Dec 1
3:00 PM
Thu, Dec 1
4:00 PM
Thu, Dec 1
5:00 PM
Thu, Dec 1
6:00 PM
Thu, Dec 1
7:00 PM
Thu, Dec 1
8:00 PM
Thu, Dec 1
9:00 PM
Thu, Dec 1
10:00 PM
Thu, Dec 1
11:00 PM
Fri, Dec 2
12:00 AM
Fri, Dec 2
1:00 AM
Condition
Clear

Clear

Clouds

Clouds

Clouds

Clouds

Clouds

Clouds

Clouds

Rain

Rain

Clouds

Clouds

Clouds

Clouds

Clouds

Clouds

Clouds

Clouds

Clouds

Clouds

Clouds

Clouds

Clouds

Clear

Clear

Clear

Clear

Clouds

Clouds

Clouds

Clouds

Clouds

Clouds

Clouds

Clouds

Clouds

Clouds

Clouds

Clouds

Clouds

Clouds

Clear

Clear

Clear

Clear

Clear

Clear
Temperature 70°F70°F71°F71°F71°F72°F72°F74°F75°F74°F74°F77°F78°F78°F76°F74°F71°F69°F67°F65°F62°F60°F58°F56°F55°F54°F52°F51°F50°F50°F50°F52°F55°F60°F63°F65°F67°F68°F67°F66°F63°F62°F60°F61°F63°F63°F62°F61°F
Feels Like 71°F71°F71°F72°F72°F73°F74°F75°F76°F75°F75°F78°F79°F79°F77°F74°F71°F69°F66°F64°F61°F58°F56°F54°F52°F51°F50°F48°F47°F44°F44°F49°F53°F57°F61°F63°F65°F66°F65°F64°F61°F60°F59°F60°F62°F62°F61°F61°F
Cloudiness 0%6%18%35%47%66%69%84%90%92%94%95%68%84%89%92%92%80%100%53%35%26%21%18%8%10%9%10%11%13%27%49%55%49%50%53%68%41%48%37%39%34%0%0%0%0%0%0%
Visibility 6 mi6 mi6 mi6 mi6 mi6 mi6 mi6 mi6 mi4 mi6 mi6 mi6 mi6 mi6 mi6 mi6 mi6 mi6 mi6 mi6 mi6 mi6 mi6 mi6 mi6 mi6 mi6 mi6 mi6 mi6 mi6 mi6 mi6 mi6 mi6 mi6 mi6 mi6 mi6 mi6 mi6 mi6 mi6 mi6 mi6 mi6 mi6 mi
Precipitation 0%0%0%0%0%0%3%11%34%65%99%80%48%44%35%32%28%28%0%0%0%0%0%0%0%0%0%0%0%0%0%0%0%0%0%0%0%0%0%0%0%0%0%0%0%0%0%0%
Humidity 88%86%87%88%90%90%89%86%84%88%85%74%69%69%74%77%78%67%60%59%56%51%51%52%51%50%48%46%46%47%47%44%40%39%35%33%32%32%35%41%46%48%53%60%68%72%75%76%
Dew Point 66°F66°F66°F67°F68°F69°F69°F70°F70°F70°F69°F68°F67°F67°F67°F66°F64°F58°F53°F50°F47°F42°F40°F39°F37°F35°F33°F31°F31°F30°F30°F30°F31°F34°F34°F34°F35°F36°F38°F41°F42°F42°F43°F47°F52°F53°F53°F54°F
Pressure 30.03"30.03"30.03"30.03"30.03"30.03"30.06"30.06"30.09"30.09"30.09"30.06"30.03"30.03"30.03"30.06"30.09"30.15"30.18"30.21"30.21"30.24"30.24"30.24"30.27"30.27"30.27"30.27"30.3"30.33"30.33"30.36"30.36"30.36"30.36"30.33"30.3"30.3"30.3"30.3"30.3"30.33"30.33"30.33"30.33"30.33"30.33"30.33"
Wind Speed 11.2 mph11.3 mph10.9 mph11.2 mph10.6 mph11.7 mph11.6 mph11.1 mph12 mph11.3 mph10.7 mph11.5 mph11 mph8.6 mph10.2 mph13.9 mph14.8 mph15.6 mph16.1 mph16.9 mph17 mph16.8 mph16.1 mph16 mph15.8 mph15.7 mph15.2 mph14.8 mph14.6 mph14.5 mph14.4 mph14.8 mph14.4 mph13.6 mph12.9 mph12.6 mph12.6 mph12.7 mph12.8 mph12 mph10.3 mph9.9 mph10.2 mph13.2 mph15.5 mph15.5 mph15 mph14.9 mph
Wind
Direction
167°
SSE
172°
S
177°
S
179°
S
183°
S
183°
S
193°
SSW
202°
SSW
210°
SSW
228°
SW
245°
WSW
262°
W
279°
W
296°
WNW
342°
NNW

N
359°
N

N

N

N
11°
N
14°
NNE
16°
NNE
17°
NNE
20°
NNE
22°
NNE
26°
NNE
28°
NNE
31°
NNE
33°
NNE
36°
NE
42°
NE
49°
NE
54°
NE
60°
ENE
68°
ENE
74°
ENE
77°
ENE
79°
E
77°
ENE
62°
ENE
48°
NE
47°
NE
68°
ENE
82°
E
85°
E
82°
E
84°
E

Daily Forecast

Date High Low Precip. Humidity
Today
Nov 30

Rain
78 °F
60 °F
99%
85%
Thursday
Dec 1

Clouds
68 °F
50 °F
0%
35%
Friday
Dec 2

Clouds
69 °F
61 °F
0%
75%
Saturday
Dec 3

Clouds
73 °F
67 °F
0%
63%
Sunday
Dec 4

Clear
74 °F
65 °F
0%
57%
Monday
Dec 5

Clouds
74 °F
65 °F
0%
64%
Tuesday
Dec 6

Rain
75 °F
70 °F
20%
73%
Wednesday
Dec 7

Rain
78 °F
66 °F
35%
61%
Thursday
Dec 8

Clouds
64 °F
56 °F
31%
72%
Friday
Dec 9

Clouds
62 °F
57 °F
22%
79%
Saturday
Dec 10

Rain
72 °F
62 °F
100%
75%
Sunday
Dec 11

Clouds
67 °F
59 °F
0%
70%
Monday
Dec 12

Clouds
67 °F
59 °F
0%
65%
Tuesday
Dec 13

Rain
66 °F
62 °F
100%
83%
Wednesday
Dec 14

Rain
68 °F
42 °F
100%
56%
Thursday
Dec 15

Clear
56 °F
39 °F
0%
44%

Temperature 8-14 Day Outlook



Precipitation 8-14 Day Outlook




Quick Links
Apalachicola Bay - St. George Island News
Apalachicola Bay - St. George Island Photos
Apalachicola Bay - St. George Island Videos




About Us
Contact Us
Site Map
Search Site
Advertise With Us
   
Apalachicola.USGulf.info
THE APALACHICOLA BAY - ST. GEORGE ISLAND WEBSITE

Copyright 2022, Coastal Town
Privacy    |    Legal